This is the latest recevied weather packets stored in our database for station/object SP6PWT-13. If no packets are shown the sender has not sent any weather packets the latest 10 day(s).
| Time | Temp. | Humidity | Pressure | Rain* | Wind** | Luminosity | Snow |
|---|---|---|---|---|---|---|---|
| 1777834141 | 22.22° C | 32% | 997.3 hPa | 0 mm | - | 0 W/m² | - |
| 1777833840 | 22.78° C | 31% | 997.1 hPa | 0 mm | - | 0 W/m² | - |
| 1777833540 | 22.78° C | 30% | 997 hPa | 0 mm | - | 0 W/m² | - |
| 1777833239 | 22.78° C | 30% | 996.9 hPa | 0 mm | - | 0 W/m² | - |
| 1777832939 | 22.78° C | 30% | 996.9 hPa | 0 mm | - | 0 W/m² | - |
| 1777832638 | 23.33° C | 29% | 996.9 hPa | 0 mm | - | 1 W/m² | - |
| 1777832338 | 23.33° C | 29% | 996.7 hPa | 0 mm | - | 1 W/m² | - |
| 1777832037 | 23.33° C | 30% | 996.8 hPa | 0 mm | - | 2 W/m² | - |
| 1777831737 | 23.33° C | 30% | 996.9 hPa | 0 mm | - | 4 W/m² | - |
| 1777831436 | 23.89° C | 29% | 996.8 hPa | 0 mm | - | 6 W/m² | - |
| 1777831135 | 23.89° C | 30% | 996.7 hPa | 0 mm | - | 8 W/m² | - |
| 1777830835 | 23.89° C | 29% | 996.8 hPa | 0 mm | - | 10 W/m² | - |
| 1777830533 | 24.44° C | 29% | 996.7 hPa | 0 mm | - | 14 W/m² | - |
| 1777830233 | 24.44° C | 29% | 996.5 hPa | 0 mm | - | 18 W/m² | - |
| 1777829932 | 24.44° C | 29% | 996.6 hPa | 0 mm | - | 21 W/m² | - |
| 1777829632 | 25° C | 28% | 996.6 hPa | 0 mm | - | 24 W/m² | - |
| 1777829331 | 25° C | 28% | 996.8 hPa | 0 mm | - | 27 W/m² | - |
| 1777829031 | 25° C | 27% | 996.7 hPa | 0 mm | - | 31 W/m² | - |
| 1777828730 | 25° C | 27% | 996.7 hPa | 0 mm | - | 37 W/m² | - |
| 1777828429 | 25.56° C | 27% | 996.7 hPa | 0 mm | - | 37 W/m² | - |
| 1777827828 | 25.56° C | 27% | 996.6 hPa | 0 mm | - | 50 W/m² | - |
| 1777827528 | 25.56° C | 27% | 996.6 hPa | 0 mm | - | 41 W/m² | - |
| 1777827228 | 25.56° C | 26% | 996.5 hPa | 0 mm | - | 64 W/m² | - |
| 1777826926 | 25.56° C | 26% | 996.6 hPa | 0 mm | - | 66 W/m² | - |
| 1777826626 | 25.56° C | 26% | 996.6 hPa | 0 mm | - | 78 W/m² | - |
* Rain latest hour (hover to see other rain measurements)
** Current wind speed in m/s (hover to see current wind gust speed)